Temp
7 7 8 8 8 9 9 8 9 8 7 9 9 10 11 11 12 12 12 13 14 15 15 16 15 16 17 18 18 18 18 20 22 22 20 19 19 19 18 18 19 19 18 16 16
7 7 7 8 8 9 8 8 8 8 8 9 9 10 11 12 12 12 12 13 14 15 15 16 17 17 18 18 18 19 18 18 18 18 18 19 18 18 18 19 19 19 18 17 16
7 7 7 8 8 8 8 9 8 8 9 10 9 10 11 12 13 11 12 13 14 15 15 16 17 18 18 19 18 18 17 19 17 15 16 18 18 18 17 17 19 18 18 16 15
7 8 8 8 8 8 8 8 8 9 9 9 10 10 11 12 13 11 12 13 14 15 15 16 17 18 18 18 18 18 17 17 16 14 14 16 15 16 17 17 18 18 17 16 15
7 7 8 7 9 7 8 8 8 9 9 10 10 11 12 12 9 11 13 13 14 14 14 16 17 19 19 18 19 19 17 16 14 14 14 14 14 14 16 17 17 17 16 16 15
7 6 7 7 7 9 8 8 8 9 9 10 10 11 12 11 9 11 13 14 14 14 15 16 16 17 17 17 16 17 17 16 14 14 14 13 14 15 17 16 16 16 16 15 14
7 6 6 8 8 7 8 8 9 9 10 10 11 11 13 9 9 11 12 14 15 15 15 15 16 16 17 15 14 15 16 15 15 15 14 13 14 13 17 17 16 16 15 14 14
8 8 8 7 7 8 8 9 9 10 11 11 11 11 9 10 10 11 11 13 14 15 15 15 15 15 14 14 15 16 16 16 15 15 13 14 13 18 18 16 16 17 16 16 15
8 8 8 8 8 9 9 9 10 11 11 11 12 12 10 10 11 12 13 13 13 14 15 15 16 14 14 15 15 16 16 18 14 14 14 13 12 17 17 16 16 17 17 17 16
9 8 8 9 9 9 10 10 11 12 11 11 12 12 10 10 11 12 13 14 13 14 15 15 15 14 14 13 13 15 16 18 17 13 14 12 12 14 16 18 18 18 17 17 16
9 10 10 10 10 10 10 10 12 11 10 10 11 10 10 11 12 12 13 14 14 15 15 14 9 10 12 12 14 14 15 15 17 13 12 12 13 14 16 17 17 18 17 16 15
10 10 10 11 11 10 11 11 11 11 10 10 10 10 10 11 12 12 13 14 15 13 14 13 10 11 12 13 14 14 14 14 14 14 12 12 12 13 16 17 17 17 16 15 14
11 11 11 11 11 11 12 12 11 11 13 11 10 10 10 11 10 10 12 13 14 13 13 12 11 12 12 14 14 14 13 11 10 11 13 12 13 16 16 16 16 16 16 15 15
12 12 12 12 12 12 12 12 12 12 10 12 12 11 11 11 10 10 11 12 13 12 12 11 11 12 13 13 12 14 11 11 11 8 8 12 9 17 15 15 15 16 16 15 14
12 12 12 12 12 13 12 12 12 12 11 12 12 11 11 12 11 11 11 13 12 12 11 11 11 12 13 12 11 11 10 10 10 8 9 12 7 12 16 15 15 15 15 14 13
12 12 12 12 12 12 12 12 12 8 10 9 12 12 13 13 12 12 12 12 12 13 11 10 10 11 11 11 11 11 10 10 10 7 7 12 8 9 12 14 15 14 14 13 13
12 12 12 12 12 12 12 12 8 10 11 11 12 13 13 13 13 13 14 12 12 9 6 11 11 10 10 11 10 10 5 6 7 9 9 8 7 9 14 15 13 12 13 13 13
12 12 12 12 12 12 12 11 10 12 12 11 12 13 13 12 13 13 13 12 12 13 9 9 8 11 10 11 10 11 10 6 9 8 8 10 7 9 13 13 13 13 13 13 13
12 12 11 11 11 12 12 8 10 12 13 12 12 13 12 12 12 13 14 13 11 11 11 11 10 10 11 11 10 11 8 10 8 12 8 9 13 13 12 12 13 13 14 13 12
12 11 11 11 12 12 10 10 9 10 11 12 13 12 14 13 13 13 13 12 11 11 11 12 10 11 9 10 10 9 10 8 6 9 10 10 15 8 8 12 11 12 13 13 12
12 11 12 12 12 12 9 9 10 9 10 11 13 14 14 14 13 14 13 11 12 11 11 11 10 9 10 8 10 8 9 9 9 9 10 11 9 10 7 11 12 13 14 13 13
12 11 12 12 11 13 10 11 10 10 10 11 12 12 12 13 13 13 13 11 11 11 11 9 10 7 11 9 9 9 11 11 7 11 9 9 6 13 11 12 13 13 13 12 12
11 12 12 12 10 9 10 10 10 10 11 11 11 11 11 12 12 12 12 9 10 11 9 10 9 6 9 9 9 9 10 10 11 7 7 9 9 12 12 11 14 13 12 12 12
12 9 11 11 11 12 11 11 10 9 10 10 11 11 11 11 11 11 11 10 9 10 9 9 9 9 7 10 10 9 10 10 9 4 8 9 12 12 11 11 12 12 12 11 11
11 8 8 9 10 11 11 12 11 10 9 9 10 10 11 11 11 11 11 10 9 8 9 9 7 8 8 8 8 8 9 9 7 8 8 11 10 11 10 10 11 11 11 10 10
10 8 9 10 10 11 9 11 11 10 10 10 9 11 11 10 11 11 11 11 11 8 9 8 6 9 6 8 8 8 9 9 9 10 9 9 9 11 12 11 11 10 10 9 9
9 8 9 9 11 10 9 10 10 10 10 10 10 10 10 10 9 10 10 10 11 9 8 8 7 6 6 10 8 7 10 10 9 10 10 8 10 10 9 10 9 9 8 8 8
Height
1447 1452 1457 1461 1466 1469 1472 1476 1479 1482 1483 1485 1487 1490 1495 1499 1502 1505 1506 1507 1507 1508 1509 1510 1512 1514 1515 1516 1516 1517 1522 1523 1518 1518 1523 1525 1526 1526 1528 1529 1529 1529 1529 1529 1530
1452 1458 1462 1465 1467 1469 1473 1477 1479 1483 1485 1488 1490 1493 1498 1501 1504 1506 1508 1507 1508 1510 1510 1514 1515 1516 1516 1517 1517 1517 1522 1525 1524 1524 1525 1526 1528 1528 1529 1528 1527 1528 1528 1527 1529
1461 1464 1467 1467 1468 1472 1476 1479 1483 1485 1487 1491 1494 1496 1501 1502 1506 1509 1508 1509 1509 1511 1511 1512 1515 1517 1517 1517 1519 1520 1525 1523 1527 1528 1529 1528 1529 1529 1528 1527 1526 1526 1526 1525 1526
1466 1468 1468 1470 1472 1475 1479 1482 1487 1489 1491 1495 1497 1500 1503 1505 1509 1508 1510 1509 1511 1512 1513 1514 1516 1518 1519 1518 1520 1524 1524 1525 1529 1530 1530 1530 1529 1529 1527 1524 1525 1525 1525 1525 1525
1470 1470 1471 1473 1474 1477 1479 1488 1490 1493 1495 1498 1501 1503 1504 1508 1509 1509 1510 1511 1512 1513 1514 1515 1518 1518 1519 1519 1520 1520 1525 1527 1529 1530 1531 1531 1529 1529 1522 1521 1522 1523 1522 1522 1523
1474 1474 1476 1480 1479 1479 1487 1492 1495 1496 1499 1502 1503 1505 1505 1509 1510 1510 1511 1512 1514 1515 1515 1515 1518 1519 1522 1523 1524 1524 1525 1527 1529 1530 1530 1530 1527 1526 1518 1518 1518 1519 1520 1520 1520
1482 1482 1482 1485 1487 1489 1494 1497 1499 1500 1504 1505 1506 1505 1506 1511 1512 1511 1512 1514 1514 1516 1516 1516 1519 1520 1524 1526 1527 1526 1527 1527 1529 1529 1530 1529 1521 1520 1514 1517 1517 1518 1518 1518 1519
1490 1489 1491 1494 1496 1498 1500 1501 1503 1505 1506 1507 1507 1508 1511 1513 1513 1512 1514 1517 1516 1517 1519 1519 1520 1521 1524 1528 1529 1528 1527 1529 1530 1529 1530 1530 1528 1511 1512 1515 1515 1515 1515 1515 1515
1498 1499 1499 1499 1499 1501 1502 1504 1505 1507 1507 1509 1509 1511 1516 1515 1514 1514 1517 1517 1518 1519 1521 1520 1522 1524 1527 1529 1532 1528 1531 1524 1531 1530 1529 1531 1526 1514 1513 1513 1511 1512 1512 1513 1513
1505 1504 1504 1504 1504 1505 1506 1506 1509 1509 1511 1511 1512 1514 1518 1519 1516 1517 1518 1518 1519 1521 1522 1522 1524 1526 1529 1534 1546 1535 1531 1523 1525 1530 1528 1531 1523 1508 1510 1507 1506 1508 1509 1510 1511
1508 1508 1508 1508 1508 1508 1507 1508 1512 1515 1514 1516 1517 1516 1518 1519 1518 1519 1520 1520 1521 1524 1523 1526 1533 1541 1538 1537 1537 1536 1533 1531 1522 1529 1531 1525 1518 1503 1503 1501 1502 1504 1506 1508 1510
1512 1511 1511 1510 1509 1509 1508 1509 1511 1517 1520 1520 1520 1519 1519 1519 1521 1521 1521 1523 1522 1526 1525 1531 1544 1541 1539 1539 1538 1535 1535 1533 1527 1528 1532 1523 1513 1501 1495 1495 1499 1502 1505 1507 1509
1514 1513 1512 1510 1509 1509 1509 1512 1514 1515 1517 1523 1522 1521 1522 1522 1524 1524 1524 1524 1526 1529 1529 1534 1541 1539 1539 1538 1536 1532 1536 1541 1545 1534 1525 1524 1511 1498 1499 1499 1501 1503 1505 1507 1509
1515 1514 1514 1513 1515 1512 1514 1515 1515 1515 1520 1526 1524 1525 1525 1524 1528 1527 1526 1529 1531 1532 1532 1538 1540 1539 1539 1537 1540 1536 1539 1540 1540 1545 1551 1528 1546 1500 1501 1502 1502 1504 1506 1508 1510
1516 1515 1514 1514 1514 1514 1516 1515 1515 1515 1532 1529 1526 1526 1525 1526 1529 1528 1527 1527 1529 1532 1533 1541 1540 1540 1538 1541 1540 1540 1541 1542 1542 1549 1543 1528 1549 1516 1500 1504 1503 1505 1507 1509 1511
1516 1515 1514 1514 1514 1515 1515 1515 1516 1526 1539 1533 1528 1526 1526 1525 1527 1528 1528 1529 1531 1530 1532 1540 1541 1542 1542 1542 1542 1542 1542 1541 1540 1547 1557 1530 1543 1531 1514 1510 1505 1506 1510 1511 1510
1517 1516 1515 1514 1515 1515 1515 1516 1528 1529 1532 1531 1528 1524 1523 1527 1527 1528 1528 1531 1532 1544 1554 1540 1541 1543 1544 1543 1543 1542 1554 1560 1559 1549 1549 1541 1547 1527 1508 1507 1509 1509 1511 1511 1510
1518 1517 1516 1515 1515 1515 1516 1518 1532 1526 1527 1529 1527 1526 1526 1530 1530 1529 1529 1533 1533 1532 1542 1548 1556 1542 1544 1543 1543 1540 1543 1560 1559 1560 1554 1536 1546 1527 1509 1509 1510 1510 1511 1511 1511
1518 1518 1517 1516 1515 1516 1518 1530 1531 1526 1526 1527 1529 1525 1529 1529 1530 1528 1528 1531 1536 1536 1540 1539 1544 1543 1542 1542 1544 1541 1548 1543 1551 1535 1553 1536 1516 1513 1510 1510 1511 1510 1510 1510 1510
1518 1518 1518 1517 1516 1517 1520 1529 1531 1531 1530 1528 1525 1527 1524 1528 1530 1528 1529 1534 1537 1538 1537 1537 1545 1539 1543 1543 1543 1542 1543 1551 1557 1555 1548 1532 1509 1528 1522 1513 1513 1511 1510 1510 1510
1519 1520 1520 1518 1518 1519 1527 1531 1531 1533 1532 1531 1527 1526 1526 1526 1529 1527 1531 1537 1536 1538 1537 1537 1540 1544 1541 1542 1539 1546 1544 1544 1544 1545 1550 1542 1533 1511 1518 1511 1511 1510 1510 1510 1509
1521 1522 1521 1519 1521 1520 1528 1529 1531 1533 1533 1532 1531 1530 1529 1530 1529 1530 1531 1534 1537 1537 1537 1540 1540 1550 1533 1536 1536 1537 1534 1534 1555 1539 1543 1545 1544 1506 1510 1511 1510 1509 1509 1510 1508
1524 1523 1522 1520 1525 1528 1531 1533 1533 1533 1533 1533 1533 1534 1533 1532 1535 1533 1534 1539 1538 1538 1539 1539 1541 1557 1540 1541 1539 1539 1534 1534 1534 1545 1547 1547 1530 1508 1509 1509 1510 1507 1508 1508 1508
1526 1528 1526 1524 1526 1526 1528 1531 1533 1535 1535 1535 1535 1535 1534 1533 1535 1535 1534 1538 1538 1539 1540 1540 1539 1540 1550 1537 1535 1537 1533 1533 1538 1556 1538 1527 1512 1511 1511 1513 1509 1507 1507 1506 1507
1529 1533 1534 1532 1529 1529 1529 1530 1532 1533 1536 1536 1535 1535 1534 1534 1535 1535 1535 1537 1539 1539 1540 1541 1543 1537 1537 1533 1533 1533 1532 1530 1536 1529 1532 1512 1514 1509 1509 1509 1508 1508 1507 1506 1504
1534 1535 1535 1534 1533 1530 1531 1532 1532 1534 1534 1535 1536 1534 1534 1536 1534 1534 1534 1534 1532 1539 1539 1539 1543 1535 1539 1526 1527 1527 1520 1520 1519 1518 1518 1517 1511 1509 1507 1507 1508 1507 1506 1504 1501
1538 1537 1536 1535 1533 1532 1534 1533 1533 1534 1535 1535 1535 1535 1535 1535 1534 1534 1533 1532 1532 1534 1538 1539 1541 1542 1539 1523 1525 1524 1505 1505 1508 1506 1509 1516 1506 1506 1505 1505 1506 1505 1504 1502 1500
Wind_Speed
20 17 14 13 15 14 16 18 15 10 11 15 20 22 21 20 18 9 2 3 5 9 11 11 6 5 5 2 4 2 1 3 3 4 4 6 2 3 3 4 2 1 3 5 8
19 17 15 13 13 15 19 18 15 10 15 19 22 24 23 20 14 6 3 3 8 11 11 6 4 6 3 2 3 3 2 7 7 6 6 6 4 5 2 8 9 10 11 13 9
18 15 12 12 11 16 18 16 10 14 19 22 23 23 22 17 9 5 2 4 8 11 11 9 8 2 3 2 3 3 3 3 7 7 6 6 4 4 4 6 6 3 6 9 7
17 16 13 9 8 22 19 14 15 19 23 23 19 20 13 5 4 2 4 7 7 8 11 10 5 1 4 5 2 3 4 4 3 3 4 4 7 6 13 11 10 6 9 8 8
16 15 12 12 9 22 20 15 18 21 21 19 17 10 7 6 6 4 6 7 8 9 9 5 4 2 1 5 4 2 5 4 2 2 4 7 9 9 21 19 15 12 14 16 14
23 16 22 20 31 33 20 16 18 17 17 17 8 5 1 6 7 8 7 7 7 7 8 11 4 5 8 5 5 3 5 5 2 2 5 5 7 9 3 4 6 12 14 13 10
27 25 28 29 22 17 17 15 14 14 13 8 13 15 13 6 10 10 10 6 6 6 6 5 9 5 4 3 2 3 2 4 5 1 2 8 7 8 16 11 6 9 11 9 9
22 21 22 19 17 15 12 11 12 10 9 13 8 10 6 10 12 8 10 8 9 8 8 8 9 8 5 4 1 3 0 2 2 1 1 4 8 4 7 7 9 10 10 12 12
20 18 15 14 12 14 15 12 12 9 9 8 5 3 5 9 6 9 7 10 10 9 9 8 6 5 4 1 1 3 3 2 3 3 2 2 9 7 5 9 16 16 15 12 10
14 11 11 12 13 15 16 19 16 10 7 7 5 4 4 2 8 9 8 8 7 7 7 6 5 3 4 2 1 4 3 3 4 3 1 8 18 21 24 21 17 13 12 9 7
15 14 14 18 17 11 6 3 5 6 21 9 9 16 8 12 14 7 8 10 6 4 2 3 7 5 6 6 3 3 5 7 3 5 5 6 14 21 17 19 12 11 3 5 6
13 11 3 1 1 3 5 5 10 10 12 11 13 14 11 10 4 8 8 2 1 4 1 4 4 4 2 3 4 1 6 4 3 2 5 9 20 16 6 2 6 8 9 10 10
12 10 9 8 4 9 13 17 13 6 4 5 8 7 7 10 6 9 6 5 6 5 5 5 4 2 2 3 5 4 3 4 2 8 4 8 8 4 4 10 8 5 8 7 6
11 9 5 6 8 11 9 8 3 1 3 6 4 6 4 4 4 9 5 2 1 4 6 5 2 2 1 1 4 2 4 4 6 6 3 5 4 4 4 6 5 12 8 8 5
10 8 6 4 4 3 3 2 2 1 4 4 3 3 6 4 2 6 7 7 5 4 3 1 2 0 3 3 5 3 4 4 2 4 3 3 3 6 4 5 5 13 13 6 2
8 8 6 1 3 2 1 2 1 4 1 2 2 0 4 7 3 2 3 5 4 3 7 4 2 3 5 1 2 5 5 5 2 1 2 1 3 5 3 2 3 15 10 6 2
7 9 8 5 1 1 1 2 5 3 2 0 2 2 4 3 3 4 2 4 2 4 3 3 4 3 2 4 5 2 4 2 5 2 4 3 2 7 3 3 7 10 8 4 5
6 7 10 6 2 2 4 2 5 1 3 1 1 2 1 2 2 2 3 4 3 3 2 4 3 3 3 2 2 2 1 4 3 2 4 4 4 4 4 7 7 6 4 6 8
5 6 14 8 3 5 2 4 2 3 2 4 2 3 2 2 1 3 3 3 4 5 1 2 2 3 1 2 3 1 1 1 1 1 2 4 4 6 7 6 7 5 9 11 12
5 4 15 9 6 5 4 3 2 3 3 2 2 2 3 4 3 3 3 2 4 3 6 2 1 1 4 3 2 2 1 1 2 2 4 5 2 4 2 4 6 7 7 9 11
4 1 14 5 6 4 3 3 4 2 4 4 5 0 4 2 4 1 4 1 2 3 4 2 2 1 1 5 4 2 2 2 1 2 2 4 5 4 8 5 3 6 7 10 10
5 1 12 5 3 3 3 3 2 2 1 1 2 4 5 3 0 1 2 5 3 0 3 3 3 3 2 4 5 3 3 6 3 1 3 3 6 5 7 7 4 9 9 12 15
3 3 10 6 3 3 2 3 4 1 1 1 2 2 2 2 1 3 2 1 1 2 3 2 2 3 2 2 1 3 4 4 3 3 5 1 5 4 9 11 8 8 7 13 18
4 3 6 8 5 2 2 3 3 2 2 3 2 2 1 3 2 1 2 2 1 1 1 3 3 4 5 2 1 4 5 7 6 3 4 8 3 6 5 6 14 10 9 16 19
7 3 4 3 6 5 2 2 3 2 0 1 2 4 3 1 1 2 0 4 4 4 2 1 3 3 7 9 7 8 10 9 11 12 5 2 6 8 9 5 10 12 16 21 20
4 4 4 1 3 4 2 3 2 2 3 3 2 3 3 3 4 2 1 3 1 5 3 4 3 3 5 11 10 10 14 15 17 16 15 17 23 13 6 8 9 13 18 22 20
10 8 4 0 2 3 2 3 4 3 2 2 4 3 5 3 5 5 7 11 7 5 6 5 2 3 5 3 7 9 6 12 7 5 10 12 10 4 5 5 10 17 22 18 19
Wind_Direction
135 142 152 159 176 183 178 171 189 177 172 160 147 142 141 135 121 94 168 226 182 148 140 120 91 118 106 68 71 32 346 253 81 12 69 96 222 138 274 276 258 238 302 180 206
116 125 130 150 166 175 172 169 164 172 154 147 142 133 132 119 106 104 22 138 146 142 114 89 127 136 90 70 24 17 349 28 12 27 32 72 350 38 329 246 234 233 235 245 255
104 104 108 131 121 161 158 153 158 155 142 140 135 135 131 130 131 8 81 144 151 159 141 128 147 193 96 129 22 35 42 94 51 43 15 359 276 246 284 267 282 32 48 199 238
110 104 107 119 143 144 146 140 149 145 139 138 136 135 127 77 141 336 133 140 150 146 140 124 136 206 143 140 131 128 58 18 82 27 5 332 326 291 242 248 307 294 269 226 253
93 98 98 117 120 123 122 136 137 139 137 137 133 128 113 87 59 96 136 141 142 141 129 116 168 119 175 99 180 96 130 101 94 1 323 302 279 264 277 259 260 266 274 277 272
74 100 104 112 116 120 116 132 139 143 137 138 124 118 135 80 69 80 119 139 142 133 141 133 100 67 61 41 7 67 127 93 68 338 300 312 280 324 271 184 242 251 249 254 263
83 88 94 101 106 111 124 134 142 138 142 130 115 84 111 94 50 87 85 108 140 153 144 138 143 129 102 109 69 113 194 175 180 51 334 330 284 220 254 257 249 253 264 263 250
90 93 99 106 113 118 128 141 139 135 135 129 103 69 77 88 85 98 97 82 93 105 122 111 108 101 68 102 127 251 265 236 121 336 112 25 277 316 178 211 245 263 251 244 243
80 91 100 109 110 113 113 123 119 107 113 107 52 111 91 71 75 80 103 103 86 91 92 87 70 76 82 274 228 218 276 201 149 116 345 176 284 314 180 244 248 265 263 266 255
64 74 95 104 110 103 103 96 85 91 77 64 59 75 68 74 76 82 92 93 103 82 60 50 48 64 18 28 338 338 358 337 287 119 356 274 267 273 269 265 264 277 270 248 240
56 72 93 97 106 101 67 87 66 48 60 61 63 83 93 84 52 67 85 81 72 45 100 49 63 68 53 12 335 1 316 292 339 82 346 268 280 284 280 267 259 260 234 165 172
49 52 102 119 158 350 55 109 105 131 80 64 65 77 77 74 76 55 81 31 337 71 76 69 98 62 6 304 284 301 294 346 317 87 327 289 289 290 315 171 164 156 143 150 163
36 37 50 62 82 85 104 111 122 125 119 53 60 56 51 60 50 16 72 37 44 65 52 114 91 119 302 253 342 110 29 15 280 309 251 310 286 162 51 98 100 103 102 124 153
31 44 76 71 77 96 98 104 99 104 108 4 19 18 1 96 76 36 72 103 58 79 74 82 80 342 306 78 341 306 31 334 317 5 288 32 279 25 157 139 181 165 161 135 136
19 35 57 74 115 71 87 21 349 103 85 6 26 26 41 76 142 14 52 58 50 108 114 209 143 98 275 40 344 32 354 326 314 307 328 201 71 273 109 150 178 104 92 96 89
30 30 33 50 58 82 18 0 23 43 67 13 315 255 167 56 65 71 62 75 128 95 57 81 40 339 20 40 344 316 265 248 159 276 24 29 108 294 48 325 72 94 90 78 33
38 37 36 41 66 82 88 72 35 65 260 81 48 18 52 36 82 14 47 62 18 52 13 172 141 115 290 250 200 281 45 347 355 355 221 198 43 247 17 76 57 81 65 25 7
22 33 33 40 52 132 132 63 69 46 80 61 182 193 74 331 116 157 206 153 70 324 181 167 314 192 153 329 308 20 282 134 213 326 287 155 238 272 125 90 81 73 63 53 20
19 43 25 24 65 126 74 52 64 49 65 158 189 225 118 140 335 242 29 54 51 9 324 344 161 141 311 351 338 155 31 12 36 258 7 233 231 50 33 136 115 78 51 20 6
19 47 11 22 93 102 67 102 100 11 328 306 300 316 154 133 221 225 153 14 117 10 327 63 289 191 123 231 167 338 6 19 354 34 292 283 237 209 344 123 61 47 36 20 10
54 44 359 41 79 51 78 63 109 92 8 346 17 49 15 89 329 91 78 77 9 129 321 357 123 163 79 199 162 152 212 228 34 180 228 316 271 160 190 168 92 37 41 29 7
51 38 2 50 65 25 53 40 87 118 18 43 304 6 13 23 198 44 25 64 59 100 359 52 330 262 172 69 31 337 305 186 131 222 237 171 275 140 156 170 231 47 54 13 352
24 3 16 45 59 85 154 97 32 150 65 343 104 352 353 29 315 25 67 72 165 289 15 95 251 333 324 48 119 264 216 258 338 56 229 164 265 132 175 203 24 81 38 6 348
36 354 10 48 45 46 117 99 106 36 46 354 37 294 264 197 103 51 204 113 98 356 27 19 290 218 206 159 150 221 218 202 192 167 228 224 250 202 168 341 10 39 9 351 339
31 46 352 350 32 24 341 350 124 158 32 327 204 282 323 308 216 223 14 151 182 181 189 253 261 269 283 292 279 254 249 232 213 224 219 269 286 289 328 18 10 350 346 335 333
47 21 350 359 324 294 125 63 338 115 208 159 244 95 220 266 32 359 2 197 249 152 217 177 281 316 287 262 248 262 251 239 239 242 246 253 270 272 279 11 346 332 329 327 328
19 13 29 25 319 297 50 48 49 353 147 318 324 321 226 305 351 310 302 292 290 183 200 176 229 1 268 325 318 282 254 231 211 208 225 242 260 26 3 353 331 315 314 315 322